YN1GRE-3 Weather Reports


time (UTC)temp
C
wind
direction
speed
KPH
gust
KPH
rain 1hr
cm
rain 24hr
cm
rain mn
cm
humidity
%
barometer
mb
20260507143013 28 90 14.5 0.0 0.00 0.00 0.00 79 1013.0
20260507141512 29 90 14.5 0.0 0.00 0.00 0.00 79 1012.0
20260507140012 25 80 14.5 0.0 0.00 0.00 0.00 94 1012.0
20260507134511 25 80 14.5 0.0 0.00 0.00 0.00 94 1012.0
20260507133011 26 80 14.5 0.0 0.00 0.00 0.00 94 1012.0
20260507131511 26 80 14.5 0.0 0.00 0.00 0.00 94 1012.0
20260507130010 27 80 9.7 0.0 0.00 0.00 0.00 94 1012.0
20260507124509 27 80 9.7 0.0 0.00 0.00 0.00 94 1013.0
20260507123009 22 80 9.7 0.0 0.00 0.00 0.00 85 1013.0
20260507121508 23 80 9.7 0.0 0.00 0.00 0.00 85 1012.0
20260507120008 23 88 8.0 22.5 0.00 0.00 0.00 85 1012.0
20260507114506 24 88 9.7 22.5 0.00 0.00 0.00 85 1012.0
20260507113005 22 91 8.0 16.1 0.00 0.00 0.00 88 1012.0
20260507111506 22 91 9.7 16.1 0.00 0.00 0.00 88 1012.0
20260507110004 22 91 8.0 16.1 0.00 0.00 0.00 88 1012.0
20260507104501 22 91 9.7 16.1 0.00 0.00 0.00 88 1012.0
20260507103000 22 93 9.7 16.1 0.00 0.00 0.00 88 1011.0
20260507101459 22 93 9.7 16.1 0.00 0.00 0.00 88 1011.0
20260507095959 22 93 9.7 16.1 0.00 0.00 0.00 88 1011.0
20260507094458 22 93 9.7 16.1 0.00 0.00 0.00 88 1011.0
20260507092957 22 98 8.0 16.1 0.00 0.00 0.00 87 1011.0
20260507091457 23 98 9.7 16.1 0.00 0.00 0.00 87 1011.0
20260507084245 22 96 11.3 17.7 0.00 0.00 0.00 87 1011.0
20260507082744 23 96 11.3 17.7 0.00 0.00 0.00 87 1011.0
20260507081244 22 96 11.3 17.7 0.00 0.00 0.00 87 1011.0
20260507075743 23 96 11.3 17.7 0.00 0.00 0.00 87 1011.0
20260507074242 22 93 11.3 17.7 0.00 0.00 0.00 86 1011.0
20260507072742 23 93 11.3 17.7 0.00 0.00 0.00 86 1012.0
20260507071242 22 93 11.3 17.7 0.00 0.00 0.00 86 1012.0
20260507064031 23 93 11.3 17.7 0.00 0.00 0.00 86 1012.0
20260507062530 22 77 11.3 17.7 0.00 0.00 0.00 85 1013.0
20260507061030 23 77 11.3 17.7 0.00 0.00 0.00 85 1013.0
20260507055529 23 77 11.3 19.3 0.00 0.00 0.00 85 1013.0
20260507054028 22 81 8.0 17.7 0.00 0.00 0.00 83 1013.0
20260507052528 23 81 8.0 17.7 0.00 0.00 0.00 83 1013.0
20260507051028 23 81 8.0 17.7 0.00 0.00 0.00 83 1013.0
20260507045527 24 81 8.0 17.7 0.00 0.00 0.00 83 1013.0
20260507044027 25 81 9.7 17.7 0.00 0.00 0.00 83 1013.0
20260507042527 23 80 8.0 14.5 0.00 0.00 0.00 81 1013.0
20260507041025 23 80 8.0 14.5 0.00 0.00 0.00 81 1013.0
20260507035525 23 80 8.0 14.5 0.00 0.00 0.00 81 1013.0
20260507034025 22 65 6.4 11.3 0.00 0.00 0.00 78 1013.0
20260507032524 23 65 6.4 11.3 0.00 0.00 0.00 78 1013.0
20260507031024 23 65 6.4 11.3 0.00 0.00 0.00 78 1013.0
20260507023814 24 65 6.4 11.3 0.00 0.00 0.00 78 1013.0
20260507022314 23 65 8.0 14.5 0.00 0.00 0.00 74 1013.0
20260507015104 23 90 12.9 0.0 0.00 0.00 0.00 74 1013.0
20260507013603 23 90 12.9 0.0 0.00 0.00 0.00 74 1013.0
20260507004641 24 90 12.9 0.0 0.00 0.00 0.00 74 1012.0
20260507003140 25 90 12.9 0.0 0.00 0.00 0.00 74 1012.0
20260507001640 25 90 12.9 0.0 0.00 0.00 0.00 74 1011.0
20260507000139 26 90 12.9 0.0 0.00 0.00 0.00 74 1011.0
20260506234639 26 90 12.9 0.0 0.00 0.00 0.00 74 1011.0
20260506233138 27 90 12.9 0.0 0.00 0.00 0.00 74 1011.0
20260506231638 27 90 12.9 0.0 0.00 0.00 0.00 74 1011.0
20260506230137 28 90 14.5 0.0 0.00 0.00 0.00 74 1011.0
20260506224636 28 90 14.5 0.0 0.00 0.00 0.00 74 1011.0
20260506223136 29 90 14.5 0.0 0.00 0.00 0.00 74 1011.0
20260506221635 26 90 17.7 0.0 0.00 0.00 0.00 70 1010.0
20260506220135 27 90 17.7 0.0 0.00 0.00 0.00 70 1010.0
20260506214635 27 90 17.7 0.0 0.00 0.00 0.00 70 1010.0
20260506211424 28 90 17.7 0.0 0.00 0.00 0.00 70 1010.0
20260506205923 28 90 17.7 0.0 0.00 0.00 0.00 70 1010.0
20260506204423 29 90 17.7 0.0 0.00 0.00 0.00 70 1010.0
20260506202922 30 90 17.7 0.0 0.00 0.00 0.00 70 1010.0
20260506201422 30 90 17.7 0.0 0.00 0.00 0.00 70 1011.0
20260506195922 31 90 17.7 0.0 0.00 0.00 0.00 70 1011.0
20260506192710 31 90 17.7 0.0 0.00 0.00 0.00 70 1011.0
20260506191210 27 100 20.9 0.0 0.00 0.00 0.00 79 1011.0
20260506185710 28 100 20.9 0.0 0.00 0.00 0.00 79 1011.0
20260506184209 28 100 20.9 0.0 0.00 0.00 0.00 79 1012.0
20260506180959 29 90 17.7 0.0 0.00 0.00 0.00 79 1012.0
20260506175458 27 90 17.7 0.0 0.00 0.00 0.00 93 1012.0
20260506173958 27 90 17.7 0.0 0.00 0.00 0.00 93 1012.0
20260506172456 28 90 17.7 0.0 0.00 0.00 0.00 93 1012.0
20260506170956 28 90 12.9 0.0 0.00 0.00 0.00 93 1013.0
20260506165455 29 90 14.5 0.0 0.00 0.00 0.00 93 1013.0
20260506163955 30 90 14.5 0.0 0.00 0.00 0.00 93 1013.0
20260506162455 30 90 14.5 0.0 0.00 0.00 0.00 93 1012.0
20260506160954 31 78 14.5 20.9 0.00 0.00 0.00 93 1013.0
20260506155453 27 90 9.7 0.0 0.00 0.00 0.00 94 1013.0
20260506153953 27 90 9.7 0.0 0.00 0.00 0.00 94 1013.0
20260506152453 26 90 12.9 0.0 0.00 0.00 0.00 89 1012.0
20260506150951 26 90 14.5 0.0 0.00 0.00 0.00 89 1013.0
20260506145450 27 90 14.5 0.0 0.00 0.00 0.00 89 1013.0
20260506143950 27 90 14.5 0.0 0.00 0.00 0.00 89 1013.0